,,,PA_Meas_PMT16A,,PR_Meas_QMR101_102,,RH_Meas_QMH101,,SR_Meas_QMS101,,TA_Meas_QMH101,,GenWind,,GenWind,
date,time,status,PA,status,PR,status,RH,status,SR,status,TA,status,DirAvg,status,SpdAvg,
2011-09-07, 00:00:04,VALID,1006.03,VALID,0,INVALID,163.845,VALID,0,VALID,23.3514,VALID,349,VALID,0,
2011-09-07, 00:01:04,VALID,1006.02,VALID,0,INVALID,163.823,VALID,0,VALID,23.3514,VALID,349,VALID,0,
2011-09-07, 00:02:04,VALID,1006.01,VALID,0,INVALID,163.807,VALID,0,VALID,23.3514,VALID,349,VALID,0,
2011-09-07, 00:03:04,VALID,1005.95,VALID,0,INVALID,163.861,VALID,0,VALID,23.3514,VALID,349,VALID,0,
2011-09-07, 00:04:04,VALID,1005.96,VALID,0,INVALID,163.815,VALID,0.100563,VALID,23.3514,VALID,349,VALID,0,
2011-09-07, 00:05:04,VALID,1005.94,VALID,0,INVALID,163.807,VALID,0,VALID,23.332,VALID,349,VALID,0,
2011-09-07, 00:06:04,VALID,1005.93,VALID,0,INVALID,163.807,VALID,0,VALID,23.3107,VALID,349,VALID,0,
2011-09-07, 00:07:04,VALID,1005.88,VALID,0,INVALID,163.845,VALID,0,VALID,23.332,VALID,349,VALID,0,
2011-09-07, 00:08:04,VALID,1005.9,VALID,0,INVALID,163.815,VALID,0.100563,VALID,23.3727,VALID,349,VALID,0,
2011-09-07, 00:09:04,VALID,1005.87,VALID,0,INVALID,163.838,VALID,0,VALID,23.3107,VALID,349,VALID,0,
2011-09-07, 00:10:04,VALID,1005.88,VALID,0,INVALID,163.83,VALID,0.100563,VALID,23.2931,VALID,349,VALID,0,
2011-09-07, 00:11:04,VALID,1005.86,VALID,0,INVALID,163.83,VALID,0,VALID,23.2736,VALID,349,VALID,0,
2011-09-07, 00:12:04,VALID,1005.89,VALID,0,INVALID,163.845,VALID,0.100563,VALID,23.2736,VALID,349,VALID,0,
2011-09-07, 00:13:04,VALID,1005.87,VALID,0,INVALID,163.823,VALID,0,VALID,23.2736,VALID,349,VALID,0,
2011-09-07, 00:14:04,VALID,1005.91,VALID,0,INVALID,163.853,VALID,0.100563,VALID,23.2736,VALID,349,VALID,0,
2011-09-07, 00:15:04,VALID,1005.87,VALID,0,INVALID,163.838,VALID,0.100563,VALID,23.2736,VALID,349,VALID,0,
2011-09-07, 00:16:04,VALID,1005.87,VALID,0,INVALID,163.807,VALID,0,VALID,23.2948,VALID,349,VALID,0,
2011-09-07, 00:17:05,VALID,1005.86,VALID,0,INVALID,163.823,VALID,0,VALID,23.2948,VALID,349,VALID,0,
2011-09-07, 00:18:05,VALID,1005.84,VALID,0,INVALID,163.83,VALID,0,VALID,23.316,VALID,349,VALID,0,
2011-09-07, 00:19:05,VALID,1005.83,VALID,0,INVALID,163.815,VALID,0,VALID,23.2754,VALID,349,VALID,0,
2011-09-07, 00:20:05,VALID,1005.83,VALID,0,INVALID,163.83,VALID,0,VALID,23.2736,VALID,349,VALID,0,
2011-09-07, 00:21:05,VALID,1005.79,VALID,0,INVALID,163.83,VALID,0,VALID,23.2541,VALID,349,VALID,0,
2011-09-07, 00:22:05,VALID,1005.79,VALID,0,INVALID,163.83,VALID,0,VALID,23.2541,VALID,349,VALID,0,
2011-09-07, 00:23:05,VALID,1005.78,VALID,0,INVALID,163.815,VALID,0,VALID,23.2754,VALID,349,VALID,0,
2011-09-07, 00:24:05,VALID,1005.75,VALID,0,INVALID,163.807,VALID,0,VALID,23.2559,VALID,349,VALID,0,
2011-09-07, 00:25:05,VALID,1005.73,VALID,0,INVALID,163.8,VALID,0,VALID,23.2559,VALID,349,VALID,0,
2011-09-07, 00:26:05,VALID,1005.72,VALID,0,INVALID,163.815,VALID,0,VALID,23.2559,VALID,349,VALID,0,
2011-09-07, 00:27:05,VALID,1005.72,VALID,0,INVALID,163.815,VALID,0,VALID,23.2559,VALID,349,VALID,0,
2011-09-07, 00:28:05,VALID,1005.72,VALID,0,INVALID,163.853,VALID,0,VALID,23.2541,VALID,349,VALID,0,
2011-09-07, 00:29:05,VALID,1005.7,VALID,0,INVALID,163.8,VALID,0,VALID,23.2754,VALID,349,VALID,0,
2011-09-07, 00:30:05,VALID,1005.7,VALID,0,INVALID,163.83,VALID,0,VALID,23.2736,VALID,349,VALID,0,
2011-09-07, 00:31:05,VALID,1005.71,VALID,0,INVALID,163.838,VALID,0,VALID,23.3125,VALID,349,VALID,0,
2011-09-07, 00:32:05,VALID,1005.7,VALID,0,INVALID,163.823,VALID,0,VALID,23.2931,VALID,349,VALID,0,
2011-09-07, 00:33:05,VALID,1005.69,VALID,0,INVALID,163.83,VALID,0,VALID,23.3125,VALID,349,VALID,0,
2011-09-07, 00:34:05,VALID,1005.68,VALID,0,INVALID,163.815,VALID,0,VALID,23.3125,VALID,349,VALID,0,
2011-09-07, 00:35:05,VALID,1005.69,VALID,0,INVALID,163.823,VALID,0,VALID,23.2718,VALID,349,VALID,0,
2011-09-07, 00:36:05,VALID,1005.68,VALID,0,INVALID,163.83,VALID,0,VALID,23.3143,VALID,349,VALID,0,
2011-09-07, 00:37:05,VALID,1005.68,VALID,0,INVALID,163.845,VALID,0,VALID,23.3337,VALID,349,VALID,0,
2011-09-07, 00:38:05,VALID,1005.66,VALID,0,INVALID,163.815,VALID,0,VALID,23.3125,VALID,349,VALID,0,
2011-09-07, 00:39:05,VALID,1005.68,VALID,0,INVALID,163.815,VALID,0,VALID,23.3125,VALID,349,VALID,0,
2011-09-07, 00:40:05,VALID,1005.67,VALID,0,INVALID,163.792,VALID,0,VALID,23.3143,VALID,349,VALID,0,
2011-09-07, 00:41:05,VALID,1005.63,VALID,0,INVALID,163.807,VALID,0,VALID,23.2948,VALID,349,VALID,0,
2011-09-07, 00:42:05,VALID,1005.6,VALID,0,INVALID,163.815,VALID,0,VALID,23.2736,VALID,349,VALID,0,
2011-09-07, 00:43:05,VALID,1005.63,VALID,0,INVALID,163.83,VALID,0,VALID,23.2754,VALID,349,VALID,0,
2011-09-07, 00:44:05,VALID,1005.63,VALID,0,INVALID,163.83,VALID,0,VALID,23.2754,VALID,349,VALID,0,
2011-09-07, 00:45:05,VALID,1005.62,VALID,0,INVALID,163.815,VALID,0,VALID,23.2347,VALID,349,VALID,0,
2011-09-07, 00:46:05,VALID,1005.61,VALID,0,INVALID,163.853,VALID,0,VALID,23.2347,VALID,349,VALID,0,
2011-09-07, 00:47:05,VALID,1005.61,VALID,0,INVALID,163.807,VALID,0,VALID,23.2364,VALID,349,VALID,0,
2011-09-07, 00:48:05,VALID,1005.61,VALID,0,INVALID,163.838,VALID,0,VALID,23.2364,VALID,349,VALID,0,
2011-09-07, 00:49:05,VALID,1005.58,VALID,0,INVALID,163.845,VALID,0,VALID,23.217,VALID,349,VALID,0,
2011-09-07, 00:50:05,VALID,1005.59,VALID,0,INVALID,163.815,VALID,0,VALID,23.217,VALID,349,VALID,0,
2011-09-07, 00:51:05,VALID,1005.59,VALID,0,INVALID,163.838,VALID,0,VALID,23.217,VALID,349,VALID,0,
2011-09-07, 00:52:05,VALID,1005.58,VALID,0,INVALID,163.845,VALID,0,VALID,23.1975,VALID,349,VALID,0,
2011-09-07, 00:53:05,VALID,1005.58,VALID,0,INVALID,163.807,VALID,0,VALID,23.178,VALID,349,VALID,0,
2011-09-07, 00:54:05,VALID,1005.54,VALID,0,INVALID,163.83,VALID,0,VALID,23.1763,VALID,349,VALID,0,
2011-09-07, 00:55:05,VALID,1005.52,VALID,0,INVALID,163.845,VALID,0,VALID,23.178,VALID,349,VALID,0,
2011-09-07, 00:56:05,VALID,1005.49,VALID,0,INVALID,163.838,VALID,0,VALID,23.1975,VALID,349,VALID,0,
2011-09-07, 00:57:05,VALID,1005.5,VALID,0,INVALID,163.853,VALID,0,VALID,23.1957,VALID,349,VALID,0,
2011-09-07, 00:58:05,VALID,1005.45,VALID,0,INVALID,163.838,VALID,0,VALID,23.1957,VALID,349,VALID,0,
2011-09-07, 00:59:05,VALID,1005.43,VALID,0,INVALID,163.815,VALID,0,VALID,23.1957,VALID,349,VALID,0,
2011-09-07, 01:00:05,VALID,1005.41,VALID,0,INVALID,163.823,VALID,0,VALID,23.2152,VALID,349,VALID,0,
2011-09-07, 01:01:05,VALID,1005.41,VALID,0,INVALID,163.83,VALID,0,VALID,23.2152,VALID,349,VALID,0,
2011-09-07, 01:02:05,VALID,1005.41,VALID,0,INVALID,163.83,VALID,0,VALID,23.217,VALID,349,VALID,0,
2011-09-07, 01:03:05,VALID,1005.4,VALID,0,INVALID,163.823,VALID,0,VALID,23.217,VALID,349,VALID,0,
2011-09-07, 01:04:05,VALID,1005.38,VALID,0,INVALID,163.838,VALID,0,VALID,23.217,VALID,349,VALID,0,
2011-09-07, 01:05:05,VALID,1005.4,VALID,0,INVALID,163.815,VALID,0,VALID,23.1763,VALID,349,VALID,0,
2011-09-07, 01:06:05,VALID,1005.38,VALID,0,INVALID,163.823,VALID,0,VALID,23.1763,VALID,349,VALID,0,
2011-09-07, 01:07:05,VALID,1005.38,VALID,0,INVALID,163.83,VALID,0,VALID,23.1763,VALID,349,VALID,0,
2011-09-07, 01:08:05,VALID,1005.37,VALID,0,INVALID,163.853,VALID,0,VALID,23.1975,VALID,349,VALID,0,
2011-09-07, 01:09:05,VALID,1005.36,VALID,0,INVALID,163.83,VALID,0,VALID,23.178,VALID,349,VALID,0,
2011-09-07, 01:10:05,VALID,1005.37,VALID,0,INVALID,163.83,VALID,0,VALID,23.1568,VALID,349,VALID,0,
2011-09-07, 01:11:05,VALID,1005.33,VALID,0,INVALID,163.823,VALID,0,VALID,23.1586,VALID,349,VALID,0,
2011-09-07, 01:12:05,VALID,1005.32,VALID,0,INVALID,163.838,VALID,0,VALID,23.1568,VALID,349,VALID,0,
2011-09-07, 01:13:05,VALID,1005.32,VALID,0,INVALID,163.845,VALID,0,VALID,23.1975,VALID,349,VALID,0,
2011-09-07, 01:14:05,VALID,1005.31,VALID,0,INVALID,163.823,VALID,0,VALID,23.1763,VALID,349,VALID,0,
2011-09-07, 01:15:05,VALID,1005.26,VALID,0,INVALID,163.868,VALID,0,VALID,23.1568,VALID,349,VALID,0,
2011-09-07, 01:16:05,VALID,1005.23,VALID,0,INVALID,163.845,VALID,0,VALID,23.1374,VALID,349,VALID,0,
2011-09-07, 01:17:05,VALID,1005.22,VALID,0,INVALID,163.815,VALID,0,VALID,23.1586,VALID,349,VALID,0,
2011-09-07, 01:18:05,VALID,1005.24,VALID,0,INVALID,163.838,VALID,0,VALID,23.1374,VALID,349,VALID,0,
2011-09-07, 01:19:05,VALID,1005.2,VALID,0,INVALID,163.845,VALID,0,VALID,23.178,VALID,349,VALID,0,
2011-09-07, 01:20:05,VALID,1005.17,VALID,0,INVALID,163.815,VALID,0,VALID,23.1586,VALID,349,VALID,0,
2011-09-07, 01:21:05,VALID,1005.19,VALID,0,INVALID,163.853,VALID,0,VALID,23.1391,VALID,349,VALID,0,
2011-09-07, 01:22:05,VALID,1005.17,VALID,0,INVALID,163.853,VALID,0,VALID,23.1586,VALID,349,VALID,0,
2011-09-07, 01:23:05,VALID,1005.18,VALID,0,INVALID,163.815,VALID,0,VALID,23.1586,VALID,349,VALID,0,
2011-09-07, 01:24:05,VALID,1005.14,VALID,0,INVALID,163.853,VALID,0,VALID,23.1586,VALID,349,VALID,0,
2011-09-07, 01:25:05,VALID,1005.13,VALID,0,INVALID,163.83,VALID,0,VALID,23.1179,VALID,349,VALID,0,
2011-09-07, 01:26:05,VALID,1005.13,VALID,0,INVALID,163.823,VALID,0,VALID,23.1179,VALID,349,VALID,0,
2011-09-07, 01:27:05,VALID,1005.11,VALID,0,INVALID,163.853,VALID,0,VALID,23.1586,VALID,349,VALID,0,
2011-09-07, 01:28:05,VALID,1005.11,VALID,0,INVALID,163.868,VALID,0,VALID,23.1391,VALID,349,VALID,0,
2011-09-07, 01:29:05,VALID,1005.09,VALID,0,INVALID,163.815,VALID,0,VALID,23.1179,VALID,349,VALID,0,
2011-09-07, 01:30:05,VALID,1005.1,VALID,0,INVALID,163.815,VALID,0,VALID,23.1391,VALID,349,VALID,0,
2011-09-07, 01:31:05,VALID,1005.07,VALID,0,INVALID,163.823,VALID,0.100563,VALID,23.1356,VALID,349,VALID,0,
2011-09-07, 01:32:05,VALID,1005.06,VALID,0,INVALID,163.823,VALID,0.100563,VALID,23.1162,VALID,352,VALID,0,
2011-09-07, 01:33:05,VALID,1005.06,VALID,0,INVALID,163.861,VALID,0.100563,VALID,23.1957,VALID,350,VALID,0,
2011-09-07, 01:34:05,VALID,1005.04,VALID,0,INVALID,163.838,VALID,0.100563,VALID,23.1957,VALID,350,VALID,0,
2011-09-07, 01:35:05,VALID,1005.01,VALID,0,INVALID,163.853,VALID,0,VALID,23.2152,VALID,350,VALID,0,
2011-09-07, 01:36:05,VALID,1005.02,VALID,0,INVALID,163.83,VALID,0.100563,VALID,23.194,VALID,350,VALID,0,
2011-09-07, 01:37:05,VALID,1005,VALID,0,INVALID,163.845,VALID,0.100563,VALID,23.2347,VALID,348,VALID,0,
2011-09-07, 01:38:05,VALID,1004.97,VALID,0,INVALID,163.823,VALID,0.100563,VALID,23.2347,VALID,348,VALID,0,
2011-09-07, 01:39:05,VALID,1004.99,VALID,0,INVALID,163.83,VALID,0.100563,VALID,23.2347,VALID,348,VALID,0,
2011-09-07, 01:40:05,VALID,1004.95,VALID,0,INVALID,163.83,VALID,0,VALID,23.194,VALID,348,VALID,0,
2011-09-07, 01:41:05,VALID,1004.96,VALID,0,INVALID,163.823,VALID,0.100563,VALID,23.1745,VALID,348,VALID,0,
2011-09-07, 01:42:05,VALID,1004.95,VALID,0,INVALID,163.823,VALID,0.100563,VALID,23.1551,VALID,348,VALID,0,
2011-09-07, 01:43:05,VALID,1004.97,VALID,0,INVALID,163.823,VALID,0.100563,VALID,23.1356,VALID,348,VALID,0,
2011-09-07, 01:44:05,VALID,1004.94,VALID,0,INVALID,163.83,VALID,0.100563,VALID,23.1568,VALID,348,VALID,0,
2011-09-07, 01:45:05,VALID,1004.95,VALID,0,INVALID,163.823,VALID,0,VALID,23.1162,VALID,348,VALID,0,
2011-09-07, 01:46:05,VALID,1004.93,VALID,0,INVALID,163.838,VALID,0,VALID,23.1374,VALID,348,VALID,0,
2011-09-07, 01:47:05,VALID,1004.89,VALID,0,INVALID,163.823,VALID,0,VALID,23.1391,VALID,348,VALID,0,
2011-09-07, 01:48:05,VALID,1004.92,VALID,0,INVALID,163.823,VALID,0,VALID,23.1179,VALID,348,VALID,0,
2011-09-07, 01:49:05,VALID,1004.88,VALID,0,INVALID,163.83,VALID,0,VALID,23.1179,VALID,348,VALID,0,
2011-09-07, 01:50:05,VALID,1004.88,VALID,0,INVALID,163.815,VALID,0,VALID,23.1763,VALID,349,VALID,0,
2011-09-07, 01:51:05,VALID,1004.87,VALID,0,INVALID,163.845,VALID,0,VALID,23.194,VALID,349,VALID,0,
2011-09-07, 01:52:05,VALID,1004.87,VALID,0,INVALID,163.823,VALID,0,VALID,23.1957,VALID,353,VALID,0,
2011-09-07, 01:53:05,VALID,1004.89,VALID,0,INVALID,163.823,VALID,0,VALID,23.2559,VALID,353,VALID,0,
2011-09-07, 01:54:05,VALID,1004.91,VALID,0,INVALID,163.807,VALID,0,VALID,23.2541,VALID,353,VALID,0,
2011-09-07, 01:55:05,VALID,1004.89,VALID,0,INVALID,163.807,VALID,0,VALID,23.2347,VALID,351,VALID,0,
2011-09-07, 01:56:05,VALID,1004.88,VALID,0,INVALID,163.823,VALID,0,VALID,23.2559,VALID,338,VALID,0,
2011-09-07, 01:57:05,VALID,1004.84,VALID,0,INVALID,163.823,VALID,0,VALID,23.2347,VALID,342,VALID,0,
2011-09-07, 01:58:05,VALID,1004.85,VALID,0,INVALID,163.807,VALID,0,VALID,23.2931,VALID,2,VALID,0,
2011-09-07, 01:59:05,VALID,1004.83,VALID,0,INVALID,163.8,VALID,0,VALID,23.3532,VALID,355,VALID,0,
2011-09-07, 02:00:05,VALID,1004.85,VALID,0,INVALID,163.838,VALID,0,VALID,23.3727,VALID,355,VALID,0,
2011-09-07, 02:01:05,VALID,1004.86,VALID,0,INVALID,163.845,VALID,0,VALID,23.3727,VALID,333,VALID,0,
2011-09-07, 02:02:05,VALID,1004.83,VALID,0,INVALID,163.8,VALID,0,VALID,23.3514,VALID,350,VALID,0,
2011-09-07, 02:03:05,VALID,1004.85,VALID,0,INVALID,163.838,VALID,0,VALID,23.3709,VALID,351,VALID,0,
2011-09-07, 02:04:05,VALID,1004.82,VALID,0,INVALID,163.807,VALID,0,VALID,23.3709,VALID,341,VALID,0,
2011-09-07, 02:05:05,VALID,1004.83,VALID,0,INVALID,163.815,VALID,0,VALID,23.4116,VALID,358,VALID,0,
2011-09-07, 02:06:05,VALID,1004.81,VALID,0,INVALID,163.807,VALID,0,VALID,23.4098,VALID,353,VALID,0,
2011-09-07, 02:07:05,VALID,1004.81,VALID,0,INVALID,163.8,VALID,0,VALID,23.4293,VALID,360,VALID,0,
2011-09-07, 02:08:05,VALID,1004.79,VALID,0,INVALID,163.792,VALID,0,VALID,23.4505,VALID,353,VALID,0,
2011-09-07, 02:09:05,VALID,1004.81,VALID,0,INVALID,163.807,VALID,0,VALID,23.4505,VALID,339,VALID,0,
2011-09-07, 02:10:05,VALID,1004.81,VALID,0,INVALID,163.8,VALID,0,VALID,23.4505,VALID,15,VALID,0,
2011-09-07, 02:11:05,VALID,1004.79,VALID,0,INVALID,163.8,VALID,0,VALID,23.47,VALID,8,VALID,0,
2011-09-07, 02:12:05,VALID,1004.78,VALID,0,INVALID,163.815,VALID,0,VALID,23.4505,VALID,5,VALID,0,
2011-09-07, 02:13:05,VALID,1004.78,VALID,0,INVALID,163.815,VALID,0,VALID,23.4505,VALID,347,VALID,0,
2011-09-07, 02:14:05,VALID,1004.75,VALID,0,INVALID,163.815,VALID,0,VALID,23.4505,VALID,338,VALID,0,
2011-09-07, 02:15:05,VALID,1004.77,VALID,0,INVALID,163.769,VALID,0,VALID,23.4505,VALID,322,VALID,0,
2011-09-07, 02:16:05,VALID,1004.76,VALID,0,INVALID,163.792,VALID,0,VALID,23.4293,VALID,347,VALID,0,
2011-09-07, 02:17:05,VALID,1004.78,VALID,0,INVALID,163.807,VALID,0,VALID,23.4293,VALID,346,VALID,0,
2011-09-07, 02:18:05,VALID,1004.75,VALID,0,INVALID,163.823,VALID,0.100563,VALID,23.4293,VALID,337,VALID,0,
2011-09-07, 02:19:05,VALID,1004.76,VALID,0,INVALID,163.815,VALID,0,VALID,23.4098,VALID,346,VALID,0,
2011-09-07, 02:20:05,VALID,1004.79,VALID,0,INVALID,163.823,VALID,0.100563,VALID,23.4293,VALID,351,VALID,0,
2011-09-07, 02:21:05,VALID,1004.74,VALID,0,INVALID,163.815,VALID,0,VALID,23.3886,VALID,348,VALID,0,
2011-09-07, 02:22:05,VALID,1004.77,VALID,0,INVALID,163.815,VALID,0,VALID,23.4098,VALID,348,VALID,0,
2011-09-07, 02:23:05,VALID,1004.77,VALID,0,INVALID,163.815,VALID,0,VALID,23.4098,VALID,357,VALID,0,
2011-09-07, 02:24:05,VALID,1004.75,VALID,0,INVALID,163.8,VALID,0,VALID,23.4098,VALID,355,VALID,0,
2011-09-07, 02:25:05,VALID,1004.8,VALID,0,INVALID,163.815,VALID,0,VALID,23.4293,VALID,346,VALID,0,
2011-09-07, 02:26:05,VALID,1004.74,VALID,0,INVALID,163.815,VALID,0,VALID,23.4293,VALID,360,VALID,0,
2011-09-07, 02:27:05,VALID,1004.79,VALID,0,INVALID,163.807,VALID,0,VALID,23.4293,VALID,355,VALID,0,
2011-09-07, 02:28:05,VALID,1004.74,VALID,0,INVALID,163.823,VALID,0,VALID,23.4505,VALID,350,VALID,0,
2011-09-07, 02:29:05,VALID,1004.75,VALID,0,INVALID,163.815,VALID,0,VALID,23.4487,VALID,353,VALID,0,
2011-09-07, 02:30:05,VALID,1004.72,VALID,0,INVALID,163.8,VALID,0,VALID,23.4487,VALID,357,VALID,0,
2011-09-07, 02:31:05,VALID,1004.74,VALID,0,INVALID,163.83,VALID,0,VALID,23.4682,VALID,347,VALID,0,
2011-09-07, 02:32:05,VALID,1004.73,VALID,0,INVALID,163.815,VALID,0,VALID,23.4487,VALID,353,VALID,0,
2011-09-07, 02:33:05,VALID,1004.71,VALID,0,INVALID,163.815,VALID,0,VALID,23.4487,VALID,352,VALID,0,
2011-09-07, 02:34:05,VALID,1004.7,VALID,0,INVALID,163.792,VALID,0,VALID,23.4487,VALID,349,VALID,0,
2011-09-07, 02:35:05,VALID,1004.69,VALID,0,INVALID,163.815,VALID,0,VALID,23.4293,VALID,355,VALID,0,
2011-09-07, 02:36:05,VALID,1004.69,VALID,0,INVALID,163.838,VALID,0,VALID,23.4293,VALID,352,VALID,0,
2011-09-07, 02:37:05,VALID,1004.68,VALID,0,INVALID,163.815,VALID,0,VALID,23.4293,VALID,352,VALID,0,
2011-09-07, 02:38:05,VALID,1004.67,VALID,0,INVALID,163.8,VALID,0,VALID,23.4098,VALID,348,VALID,0,
2011-09-07, 02:39:05,VALID,1004.68,VALID,0,INVALID,163.83,VALID,0,VALID,23.3709,VALID,348,VALID,0,
2011-09-07, 02:40:05,VALID,1004.66,VALID,0,INVALID,163.807,VALID,0,VALID,23.3921,VALID,347,VALID,0,
2011-09-07, 02:41:05,VALID,1004.65,VALID,0,INVALID,163.838,VALID,0,VALID,23.3709,VALID,350,VALID,0,
2011-09-07, 02:42:05,VALID,1004.63,VALID,0,INVALID,163.815,VALID,0,VALID,23.3514,VALID,348,VALID,0,
2011-09-07, 02:43:05,VALID,1004.65,VALID,0,INVALID,163.823,VALID,0,VALID,23.3514,VALID,356,VALID,0,
2011-09-07, 02:44:05,VALID,1004.63,VALID,0,INVALID,163.8,VALID,0,VALID,23.3514,VALID,344,VALID,0,
2011-09-07, 02:45:05,VALID,1004.61,VALID,0,INVALID,163.823,VALID,0,VALID,23.3514,VALID,355,VALID,0,
2011-09-07, 02:46:05,VALID,1004.61,VALID,0,INVALID,163.823,VALID,0,VALID,23.3709,VALID,342,VALID,0,
2011-09-07, 02:47:05,VALID,1004.6,VALID,0,INVALID,163.815,VALID,0,VALID,23.3904,VALID,1,VALID,0,
2011-09-07, 02:48:05,VALID,1004.62,VALID,0,INVALID,163.807,VALID,0,VALID,23.3904,VALID,6,VALID,0,
2011-09-07, 02:49:05,VALID,1004.62,VALID,0,INVALID,163.823,VALID,0,VALID,23.3886,VALID,341,VALID,0,
2011-09-07, 02:50:05,VALID,1004.63,VALID,0,INVALID,163.823,VALID,0,VALID,23.4098,VALID,352,VALID,0,
2011-09-07, 02:51:05,VALID,1004.62,VALID,0,INVALID,163.807,VALID,0,VALID,23.4293,VALID,343,VALID,0,
2011-09-07, 02:52:04,VALID,1004.66,VALID,0,INVALID,163.777,VALID,0,VALID,23.4487,VALID,343,VALID,0,
2011-09-07, 02:53:04,VALID,1004.68,VALID,0,INVALID,163.823,VALID,0,VALID,23.4682,VALID,352,VALID,0,
2011-09-07, 02:54:04,VALID,1004.69,VALID,0,INVALID,163.807,VALID,0,VALID,23.4682,VALID,358,VALID,0,
2011-09-07, 02:55:04,VALID,1004.67,VALID,0,INVALID,163.784,VALID,0,VALID,23.4877,VALID,339,VALID,0,
2011-09-07, 02:56:04,VALID,1004.68,VALID,0,INVALID,163.823,VALID,0,VALID,23.4877,VALID,352,VALID,0,
2011-09-07, 02:57:04,VALID,1004.7,VALID,0,INVALID,163.815,VALID,0,VALID,23.4877,VALID,329,VALID,0,
2011-09-07, 02:58:04,VALID,1004.68,VALID,0,INVALID,163.792,VALID,0,VALID,23.4859,VALID,352,VALID,0,
2011-09-07, 02:59:04,VALID,1004.68,VALID,0,INVALID,163.8,VALID,0,VALID,23.5266,VALID,359,VALID,0,
2011-09-07, 03:00:04,VALID,1004.67,VALID,0,INVALID,163.769,VALID,0,VALID,23.546,VALID,350,VALID,0,
2011-09-07, 03:01:04,VALID,1004.69,VALID,0,INVALID,163.807,VALID,0.100563,VALID,23.5655,VALID,349,VALID,0,
2011-09-07, 03:02:04,VALID,1004.7,VALID,0,INVALID,163.807,VALID,0.100563,VALID,23.585,VALID,345,VALID,0,
2011-09-07, 03:03:04,VALID,1004.72,VALID,0,INVALID,163.815,VALID,0,VALID,23.5637,VALID,350,VALID,0,
2011-09-07, 03:04:04,VALID,1004.73,VALID,0,INVALID,163.8,VALID,0.100563,VALID,23.5832,VALID,353,VALID,0,
2011-09-07, 03:05:04,VALID,1004.73,VALID,0,INVALID,163.792,VALID,0,VALID,23.6239,VALID,354,VALID,0,
2011-09-07, 03:06:04,VALID,1004.74,VALID,0,INVALID,163.807,VALID,0.100563,VALID,23.6434,VALID,354,VALID,0,
2011-09-07, 03:07:04,VALID,1004.73,VALID,0,INVALID,163.769,VALID,0.100563,VALID,23.6628,VALID,348,VALID,0,
2011-09-07, 03:08:04,VALID,1004.72,VALID,0,INVALID,163.8,VALID,0,VALID,23.6823,VALID,349,VALID,0,
2011-09-07, 03:09:04,VALID,1004.75,VALID,0,INVALID,163.777,VALID,0.100563,VALID,23.7017,VALID,357,VALID,0,
2011-09-07, 03:10:04,VALID,1004.75,VALID,0,INVALID,163.784,VALID,0.100563,VALID,23.6805,VALID,328,VALID,0,
2011-09-07, 03:11:04,VALID,1004.73,VALID,0,INVALID,163.792,VALID,0.100563,VALID,23.7,VALID,318,VALID,0,
2011-09-07, 03:12:04,VALID,1004.75,VALID,0,INVALID,163.815,VALID,0.100563,VALID,23.7212,VALID,345,VALID,0,
2011-09-07, 03:13:04,VALID,1004.75,VALID,0,INVALID,163.8,VALID,0.100563,VALID,23.7407,VALID,325,VALID,0,
2011-09-07, 03:14:04,VALID,1004.75,VALID,0,INVALID,163.784,VALID,0.100563,VALID,23.7601,VALID,352,VALID,0,
2011-09-07, 03:15:04,VALID,1004.76,VALID,0,INVALID,163.777,VALID,0.100563,VALID,23.7601,VALID,351,VALID,0,
2011-09-07, 03:16:04,VALID,1004.74,VALID,0,INVALID,163.8,VALID,0.100563,VALID,23.7601,VALID,351,VALID,0,
2011-09-07, 03:17:04,VALID,1004.75,VALID,0,INVALID,163.792,VALID,0,VALID,23.7389,VALID,351,VALID,0,
2011-09-07, 03:18:04,VALID,1004.73,VALID,0,INVALID,163.8,VALID,0.100563,VALID,23.7601,VALID,324,VALID,0,
2011-09-07, 03:19:04,VALID,1004.72,VALID,0,INVALID,163.823,VALID,0.100563,VALID,23.7389,VALID,350,VALID,0,
2011-09-07, 03:20:04,VALID,1004.75,VALID,0,INVALID,163.792,VALID,0.100563,VALID,23.7389,VALID,351,VALID,0,
2011-09-07, 03:21:04,VALID,1004.74,VALID,0,INVALID,163.792,VALID,0.100563,VALID,23.7796,VALID,14,VALID,0,
2011-09-07, 03:22:04,VALID,1004.78,VALID,0,INVALID,163.8,VALID,0,VALID,23.7389,VALID,14,VALID,0,
2011-09-07, 03:23:04,VALID,1004.78,VALID,0,INVALID,163.777,VALID,0.100563,VALID,23.7,VALID,14,VALID,0,
2011-09-07, 03:24:04,VALID,1004.8,VALID,0,INVALID,163.8,VALID,0.100563,VALID,23.7212,VALID,14,VALID,0,
2011-09-07, 03:25:04,VALID,1004.78,VALID,0,INVALID,163.807,VALID,0.100563,VALID,23.6805,VALID,11,VALID,0,
2011-09-07, 03:26:04,VALID,1004.78,VALID,0,INVALID,163.792,VALID,0.100563,VALID,23.6823,VALID,11,VALID,0,
2011-09-07, 03:27:04,VALID,1004.73,VALID,0,INVALID,163.807,VALID,0.100563,VALID,23.7017,VALID,9,VALID,0,
2011-09-07, 03:28:04,VALID,1004.75,VALID,0,INVALID,163.792,VALID,0.100563,VALID,23.661,VALID,9,VALID,0,
2011-09-07, 03:29:04,VALID,1004.77,VALID,0,INVALID,163.823,VALID,0.100563,VALID,23.6823,VALID,9,VALID,0,
2011-09-07, 03:30:04,VALID,1004.76,VALID,0,INVALID,163.769,VALID,0.100563,VALID,23.6416,VALID,5,VALID,0,
2011-09-07, 03:31:04,VALID,1004.73,VALID,0,INVALID,163.792,VALID,0,VALID,23.6044,VALID,1,VALID,0,
2011-09-07, 03:32:04,VALID,1004.74,VALID,0,INVALID,163.815,VALID,0,VALID,23.585,VALID,1,VALID,0,
2011-09-07, 03:33:04,VALID,1004.71,VALID,0,INVALID,163.8,VALID,0.100563,VALID,23.6044,VALID,1,VALID,0,
2011-09-07, 03:34:04,VALID,1004.71,VALID,0,INVALID,163.807,VALID,0,VALID,23.6044,VALID,347,VALID,0,
2011-09-07, 03:35:04,VALID,1004.7,VALID,0,INVALID,163.792,VALID,0,VALID,23.6452,VALID,354,VALID,0,
2011-09-07, 03:36:04,VALID,1004.66,VALID,0,INVALID,163.807,VALID,0,VALID,23.6452,VALID,346,VALID,0,
2011-09-07, 03:37:04,VALID,1004.66,VALID,0,INVALID,163.807,VALID,0,VALID,23.6434,VALID,346,VALID,0,
2011-09-07, 03:38:04,VALID,1004.64,VALID,0,INVALID,163.792,VALID,0,VALID,23.6239,VALID,356,VALID,0,
2011-09-07, 03:39:04,VALID,1004.64,VALID,0,INVALID,163.823,VALID,0,VALID,23.6452,VALID,355,VALID,0,
2011-09-07, 03:40:04,VALID,1004.62,VALID,0,INVALID,163.792,VALID,0,VALID,23.6452,VALID,1,VALID,0,
2011-09-07, 03:41:04,VALID,1004.62,VALID,0,INVALID,163.792,VALID,0,VALID,23.6646,VALID,1,VALID,0,
2011-09-07, 03:42:04,VALID,1004.58,VALID,0,INVALID,163.792,VALID,0,VALID,23.6239,VALID,360,VALID,0,
2011-09-07, 03:43:04,VALID,1004.58,VALID,0,INVALID,163.8,VALID,0,VALID,23.6452,VALID,360,VALID,0,
2011-09-07, 03:44:04,VALID,1004.59,VALID,0,INVALID,163.754,VALID,0,VALID,23.6646,VALID,360,VALID,0,
2011-09-07, 03:45:04,VALID,1004.59,VALID,0,INVALID,163.8,VALID,0,VALID,23.6452,VALID,4,VALID,0,
2011-09-07, 03:46:04,VALID,1004.56,VALID,0,INVALID,163.8,VALID,0.100563,VALID,23.6646,VALID,15,VALID,0,
2011-09-07, 03:47:04,VALID,1004.57,VALID,0,INVALID,163.784,VALID,0.100563,VALID,23.6434,VALID,13,VALID,0,
2011-09-07, 03:48:04,VALID,1004.53,VALID,0,INVALID,163.8,VALID,0.100563,VALID,23.6416,VALID,358,VALID,0,
2011-09-07, 03:49:04,VALID,1004.55,VALID,0,INVALID,163.792,VALID,0.100563,VALID,23.6416,VALID,355,VALID,0,
2011-09-07, 03:50:04,VALID,1004.54,VALID,0,INVALID,163.784,VALID,0.100563,VALID,23.6628,VALID,355,VALID,0,
2011-09-07, 03:51:04,VALID,1004.53,VALID,0,INVALID,163.807,VALID,0.100563,VALID,23.6628,VALID,345,VALID,0,
2011-09-07, 03:52:04,VALID,1004.51,VALID,0,INVALID,163.784,VALID,0,VALID,23.6628,VALID,345,VALID,0,